星链-30140 (STARLINK-30140 )

导读

STARLINK-30140是美国太空探索技术公司SpaceX星链互联网卫星星座的一员,于2023年7月28日发射入轨。星链项目旨在为全球提供高速低延迟宽带互联网服务,该卫星继承星链平台设计,运行在近地轨道,承担地面网络覆盖与通信传输任务,是星链大规模组网部署过程中的组成单元。

Basic Information
目录编号:
57458
目录名称:
STARLINK-30140
国际标识:
2023-107B
轨道中心:
EARTH
卫星名称:
星链-30140
卫星全名:
星链-30140 (STARLINK-30140 )
卫星状态:
在轨 (已飞行1056 天)
发射日期:
2023-07-28 UTC
国别 :
美国 (US)
星等 :
--
Orbit Information
数据来源 国际轨道数据 AOE轨道数据
星历时间 2026-06-18T14:54:36+0800
8小时前
查看轨道信息
2026-06-18T17:00:00+0800
6小时前
查看轨道信息
半长轴 6861.164km 6861.184km
偏心率 0.0001368 0.0001769
轨道倾角 43.003° 43.000°
近地点辐角 272.436° 229.803°
升交点赤经 131.275° 130.772°
平近点角 87.634° 249.718°
近地点 482.088km 481.833km
远地点 483.966km 484.261km
周期 94.266分钟 94.267分钟
每日圈数 15.275875 15.275809
Detailed Information
固有亮度:
5
最大亮度:
0.3
卫星平台:
Starlink v2.0 mini
覆盖范围:
全球
运营商:
太空探索技术公司
运营商所在国:
美国
制造商(研发单位):
太空探索技术公司
制造商所在国:
美国
使用方式:
暂无
Satellite Introduction
星链(Starlink)计划是由太空探索技术公司(SpaceX)提出的一个巨型低轨卫星互联网星座项目,计划在2019年至2024年间在太空搭建由约1.2万颗卫星组成的“星链”网络,其中1584颗将部署在地球上空550千米处的近地轨道,并从2020年开始工作。该卫星仍在工作。
2D Orbit Map
3D Orbit Map
Orbit Altitude Analysis Chart
Orbit Inclination Analysis Chart
Orbit Comprehensive Analysis Chart
View Comprehensive Chart